#timestamp,LO_Frequency,Hit,StdDev 
1460041215.9,286046997.9,Y
1460041235.7,286047001.1,P
1460041255.5,286046999.1,N
1460041275.4,286046997.0,N
1460041295.2,286046995.4,N
1460041315.0,286046997.9,N
1460041315.9,286046997.9,N
1460041335.8,286046995.6,N
1460041355.6,286046995.5,N
1460041375.4,286046996.9,N
1460041395.3,286047000.0,N
1460041415.1,286047001.1,N
1460041416.0,286047001.1,N
1460041435.8,286047000.9,N
1460041455.7,286047002.4,N
1460041475.5,286047000.0,N
1460041495.3,286046998.1,N
1460041515.1,286047000.9,N
1460041535.9,286046998.1,N
1460041555.7,286047001.0,N
1460041575.5,286047001.9,N
1460041595.4,286047002.2,N
1460041615.2,286047003.0,N
1460041635.0,286047005.8,N
1460041635.9,286047005.8,N
1460041655.8,286047003.4,N
1460041675.6,286047004.4,N
1460041695.4,286047002.5,N
1460041715.3,286047004.0,N
1460041735.1,286047005.5,N
1460041736.0,286047005.5,N
1460041755.8,286047006.0,N
1460041775.7,286047004.0,N
1460041795.5,286047007.5,N
1460041815.3,286047006.5,N
1460041835.2,286047009.2,N
1460041855.9,286047009.2,N
1460041875.7,286047008.6,N
1460041895.5,286047006.4,N
1460041915.4,286047007.9,N
1460041935.2,286047006.8,N
1460041955.0,286047008.9,N
1460041955.9,286047008.9,N
1460041975.8,286047009.2,N
1460041995.6,286047006.7,N
1460042015.4,286047007.0,N
1460042035.3,286047007.1,N
1460042055.1,286047008.7,Y
1460042075.8,286047002.2,P
1460042095.7,286047001.9,N
1460042115.5,286047003.4,N
1460042135.3,286047003.6,N
1460042155.2,286047004.7,Y
1460042175.0,286047005.8,P
1460042175.9,286047005.8,P
1460042195.7,286047006.0,P
1460042215.6,286047004.1,Y
1460042235.4,286046998.8,P
1460042255.2,286046998.6,N
1460042275.1,286046998.8,N
1460042276.0,286046998.8,N
1460042295.8,286046996.5,N
1460042315.6,286046999.4,N
1460042335.5,286046998.5,N
1460042355.3,286046998.5,N
1460042375.1,286047000.3,N
1460042395.9,286046998.3,N
1460042415.7,286047001.2,N
1460042435.5,286047000.0,N
1460042455.4,286047000.3,N
1460042475.2,286047002.6,N
1460042495.0,286047002.7,N
1460042495.9,286047002.7,N
1460042515.8,286047001.8,N
1460042535.6,286047001.6,N
1460042555.4,286047003.4,N
1460042575.2,286047005.2,N
1460042595.1,286047003.0,N
1460042596.0,286047003.0,N
1460042615.8,286047001.3,N
1460042635.6,286047005.8,N
1460042655.5,286047007.5,Y
1460042675.3,286047005.0,P
1460042695.1,286047004.6,N
1460042715.9,286047005.2,N
1460042735.7,286047007.3,Y
1460042755.5,286047001.7,P
1460042775.4,286047001.8,N
1460042795.2,286046999.7,N
1460042815.0,286047000.5,N
1460042815.9,286047000.5,N
1460042835.8,286047002.7,N
1460042855.6,286047003.6,N
1460042875.4,286047004.2,N
1460042895.3,286047002.9,N
1460042915.1,286047001.5,N
1460042916.0,286047001.5,N
1460042935.8,286047003.4,N
1460042955.7,286047003.2,N
1460042975.5,286047004.3,Y
1460042995.3,286047004.1,P
1460043015.2,286047002.0,N
1460043035.9,286047002.8,N
1460043055.7,286047002.6,Y
1460043075.6,286047000.2,P
1460043095.4,286047001.3,N
1460043115.2,286047001.7,N
1460043135.0,286047002.3,N
1460043136.0,286047002.3,N
1460043155.8,286047004.4,Y
1460043175.6,286047005.9,P
1460043195.5,286047004.8,N
1460043215.3,286047004.7,N
1460043235.1,286047006.6,Y
1460043255.9,286047001.8,P
1460043275.7,286047003.1,N
1460043295.5,286047006.2,P
1460043315.4,286047008.4,Y
1460043335.2,286047002.9,P
1460043355.0,286047005.0,P
1460043355.9,286047005.0,P
1460043375.8,286047005.7,Y
1460043395.6,286047000.4,P
1460043415.4,286047001.6,N
1460043435.3,286046998.7,N
1460043455.1,286046997.4,N
1460043456.0,286046997.4,N
1460043475.8,286046996.4,N
1460043495.7,286046992.3,Y
1460043515.5,286046992.4,P
1460043535.3,286046993.2,N
1460043555.2,286046990.6,N
1460043575.9,286046990.6,N
1460043595.7,286046992.8,N
1460043615.5,286046993.1,N
1460043635.4,286046990.3,Y
1460043655.2,286046999.4,P
1460043675.0,286046999.1,N
1460043676.0,286046999.1,N
1460043695.8,286046999.0,N
1460043715.6,286046999.1,N
1460043735.4,286047000.9,N
1460043755.3,286047002.3,N
1460043775.1,286046999.7,N
1460043795.8,286047001.2,N
1460043815.7,286047000.4,N
1460043835.5,286047001.0,N
1460043855.3,286046998.2,N
1460043875.2,286046998.8,N
1460043895.9,286047001.1,N
1460043915.7,286047000.6,N
1460043935.6,286047002.2,N
1460043955.4,286047001.4,N
1460043975.2,286047002.2,N
1460043995.0,286046999.7,N
1460043996.0,286046999.7,N
1460044015.8,286046998.9,N
1460044035.6,286047002.3,N
1460044055.4,286047001.2,N
1460044075.3,286046996.5,N
1460044095.1,286046997.7,N
1460044115.8,286046997.8,N
1460044135.7,286046997.5,N
1460044155.5,286046998.8,N
1460044175.3,286047000.3,N
1460044195.2,286047002.4,N
1460044215.9,286046999.1,N
1460044235.7,286047000.3,N
1460044255.6,286047002.6,N
1460044275.4,286047002.5,N
1460044295.2,286047003.2,N
1460044315.1,286047003.3,N
1460044316.0,286047003.3,N
1460044335.8,286047007.6,Y
1460044355.6,286047004.0,P
1460044375.5,286047002.1,N
1460044395.3,286047000.3,N
1460044415.1,286047004.1,N
1460044435.8,286047004.8,N
1460044455.7,286047003.3,N
1460044475.5,286047006.7,Y
1460044495.4,286047003.7,P
1460044515.2,286047004.9,P
1460044535.0,286047008.9,P
1460044535.9,286047008.9,Y
1460044555.8,286047002.7,P
1460044575.6,286047000.1,N
1460044595.4,286047001.4,N
1460044615.2,286047000.2,N
1460044635.1,286046998.1,N
1460044636.0,286046998.1,N
1460044655.8,286046999.9,N
1460044675.6,286047000.7,N
1460044695.5,286047000.5,N
1460044715.3,286047001.0,N
1460044735.1,286047002.8,N
1460044755.9,286047002.5,N
1460044775.7,286047000.3,N
1460044795.5,286047000.6,N
